Probability
0 0 0 0 0 0 0 0 0 0 0 0 0 0 0 0 0 0 0 0 0 0 0 0 0 0 0 0 0 0 0 0 0 0 0 0 0 0 0 0 0 0 0
0 0 0 0 0 0 0 0 0 0 0 0 0 0 0 0 0 0 0 0 0 0 0 0 0 0 0 0 0 0 0 0 0 0 0 0 0 0 0 0 0 0 0
0 0 0 0 0 0 0 0 0 0 0 0 0 0 0 0 0 0 0 0 0 0 0 0 0 0 0 0 0 0 0 0 0 0 0 0 0 0 0 0 0 0 0
0 0 0 0 0 0 0 0 0 0 0 0 0 0 0 0 0 0 0 0 0 0 0 0 0 0 0 0 0 0 0 0 0 0 0 0 0 0 0 0 0 0 0
0 0 0 0 0 0 0 0 0 0 0 0 0 0 0 0 0 0 0 0 0 0 0 0 0 0 0 0 0 0 0 0 0 0 0 0 0 0 0 0 0 0 0
0 0 0 0 0 0 0 0 0 0 0 0 0 0 0 0 0 0 0 0 0 0 0 0 0 0 0 0 0 0 0 0 0 0 0 0 0 0 0 0 0 0 0
0 0 0 0 0 0 0 0 0 0 0 0 0 0 0 0 0 0 0 0 0 0 0 0 0 0 0 0 0 0 0 0 0 0 0 0 0 0 0 0 0 0 0
0 0 0 0 0 0 0 0 0 0 0 0 0 0 0 0 0 0 0 0 0 0 0 0 0 0 0 0 0 0 0 0 0 0 0 0 0 0 0 0 0 0 0
0 0 0 0 0 0 0 0 0 0 0 0 0 0 0 0 0 0 0 0 0 0 0 0 0 0 0 0 0 0 0 0 0 0 0 0 0 0 0 0 0 0 0
0 0 0 0 0 0 0 0 0 0 0 0 0 0 0 0 0 0 0 0 0 0 0 0 0 0 0 0 0 0 0 0 0 0 0 0 0 0 0 0 0 0 0
0 0 0 0 0 0 0 0 0 0 0 0 0 0 0 0 0 0 0 0 0 0 0 0 0 0 0 0 0 0 0 0 0 0 0 0 0 0 0 0 0 0 0
0 0 0 0 0 0 0 0 0 0 0 0 0 0 0 0 0 0 0 0 0 0 0 0 0 0 0 0 0 0 0 0 0 0 0 0 0 0 0 0 0 0 0
0 0 0 0 0 0 0 0 0 0 0 0 0 0 0 0 0 0 0 0 0 0 0 0 0 0 0 0 0 0 0 0 0 0 0 0 0 0 0 0 0 0 0
0 0 0 0 0 0 0 0 0 0 0 0 0 0 0 0 0 0 0 0 0 0 0 0 0 0 0 0 0 0 0 0 0 0 0 0 0 0 0 0 0 0 0
0 0 0 0 0 0 0 0 0 0 0 0 0 0 0 0 0 0 0 0 0 0 0 0 0 0 0 0 0 0 0 0 0 0 0 0 0 0 0 0 0 0 0
0 0 0 0 0 0 0 0 0 0 0 0 0 0 0 0 0 0 0 0 0 0 0 0 0 0 0 0 0 0 0 0 0 0 0 0 0 0 0 0 0 0 0
0 0 0 0 0 0 0 0 0 0 0 0 0 0 0 0 0 0 0 0 0 0 0 0 0 0 0 0 0 0 0 0 0 0 0 0 0 0 0 0 0 0 0
0 0 0 0 0 0 0 0 0 0 0 0 0 0 0 0 0 0 0 0 0 0 0 0 0 0 0 0 0 0 0 0 0 0 0 0 0 0 0 0 0 0 0
0 0 0 0 0 0 0 0 0 0 0 0 0 0 0 0 0 0 0 0 0 0 0 0 0 0 0 0 0 0 0 0 0 0 0 0 0 0 0 0 0 0 0
0 0 0 0 0 0 0 0 0 0 0 0 0 0 0 0 0 0 0 0 0 0 0 0 0 0 0 0 0 0 0 0 0 0 0 0 0 0 0 0 0 0 0
0 0 0 0 0 0 0 0 0 0 0 0 0 0 0 0 0 0 0 0 0 0 0 0 0 0 0 0 0 0 0 0 0 0 0 0 0 0 0 0 0 0 0
0 0 0 0 0 0 0 0 0 0 0 0 0 0 0 0 0 0 0 0 0 0 0 0 0 0 0 0 0 0 0 0 0 0 0 0 0 0 0 0 0 0 0
0 0 0 0 0 0 0 0 0 0 0 0 0 0 0 0 0 0 0 0 0 0 0 0 0 0 0 0 0 0 0 0 0 0 0 0 0 0 0 0 0 0 0
0 0 0 0 0 0 0 0 0 0 0 0 0 0 0 0 0 0 0 0 0 0 0 0 0 0 0 0 0 0 0 0 0 0 0 0 0 0 0 0 0 0 0
0 0 0 0 0 0 0 0 0 0 0 0 0 0 0 0 0 0 0 0 0 0 0 0 0 0 0 0 0 0 0 0 0 0 0 0 0 0 0 0 0 0 0
0 0 0 0 0 0 0 0 0 0 0 0 0 0 0 0 0 0 0 0 0 0 0 0 0 0 0 0 0 0 0 0 0 0 0 0 0 0 0 0 0 0 0
Height
5726 5721 5716 5711 5705 5699 5692 5686 5678 5671 5664 5656 5648 5640 5631 5622 5613 5605 5597 5589 5581 5574 5566 5558 5553 5546 5540 5536 5530 5526 5523 5519 5521 5533 5529 5526 5522 5520 5519 5518 5519 5520 5521
5715 5709 5704 5697 5691 5684 5677 5669 5661 5653 5644 5635 5627 5618 5608 5599 5589 5579 5571 5562 5554 5547 5539 5531 5525 5518 5513 5508 5503 5500 5498 5495 5493 5501 5505 5501 5499 5497 5496 5496 5497 5498 5499
5702 5696 5690 5683 5676 5668 5660 5651 5642 5633 5624 5614 5604 5594 5584 5573 5563 5552 5542 5534 5526 5518 5510 5503 5497 5490 5486 5481 5477 5474 5473 5470 5469 5472 5478 5477 5475 5474 5473 5474 5474 5475 5477
5689 5682 5675 5667 5658 5650 5641 5631 5622 5612 5602 5591 5580 5569 5558 5547 5535 5524 5514 5505 5497 5490 5483 5476 5470 5464 5460 5456 5453 5451 5449 5447 5447 5448 5452 5453 5453 5452 5451 5453 5453 5453 5455
5674 5666 5658 5649 5640 5631 5621 5611 5600 5589 5578 5566 5555 5544 5531 5519 5507 5496 5486 5478 5471 5465 5458 5452 5446 5440 5436 5433 5431 5429 5427 5426 5425 5426 5429 5430 5431 5431 5432 5431 5432 5433 5435
5658 5650 5641 5631 5621 5611 5600 5590 5578 5567 5554 5542 5529 5517 5506 5493 5481 5470 5460 5454 5448 5442 5437 5431 5426 5421 5416 5413 5410 5409 5408 5407 5407 5407 5408 5410 5410 5410 5410 5411 5412 5414 5417
5642 5632 5622 5612 5602 5591 5579 5567 5555 5543 5531 5518 5505 5492 5482 5471 5459 5450 5441 5433 5428 5422 5417 5412 5408 5403 5399 5396 5393 5391 5390 5389 5389 5389 5390 5392 5391 5391 5391 5393 5394 5395 5397
5624 5613 5602 5591 5581 5569 5557 5544 5532 5519 5507 5494 5482 5471 5460 5451 5440 5432 5424 5418 5412 5406 5400 5395 5391 5387 5383 5380 5378 5377 5375 5374 5372 5372 5374 5376 5375 5374 5374 5375 5376 5377 5379
5606 5595 5583 5570 5559 5548 5535 5522 5509 5496 5485 5473 5462 5451 5442 5434 5425 5416 5409 5403 5398 5392 5386 5381 5376 5373 5369 5366 5364 5363 5362 5360 5358 5358 5359 5359 5359 5359 5359 5359 5359 5360 5361
5587 5575 5562 5549 5537 5525 5512 5499 5487 5474 5464 5454 5445 5435 5426 5418 5410 5402 5395 5389 5384 5379 5374 5369 5364 5360 5357 5353 5351 5350 5349 5348 5346 5345 5345 5344 5344 5344 5343 5343 5343 5343 5344
5568 5556 5543 5529 5516 5503 5491 5479 5466 5456 5447 5438 5430 5422 5413 5404 5397 5389 5382 5376 5371 5366 5362 5357 5353 5349 5345 5342 5339 5338 5337 5335 5334 5333 5332 5331 5330 5329 5328 5328 5328 5328 5328
5550 5537 5524 5510 5496 5482 5471 5460 5450 5439 5431 5423 5416 5409 5401 5392 5385 5378 5371 5365 5359 5354 5350 5346 5342 5338 5334 5331 5328 5326 5324 5323 5322 5321 5319 5318 5316 5315 5314 5313 5313 5312 5312
5531 5518 5505 5492 5479 5465 5453 5444 5435 5426 5417 5410 5402 5396 5389 5382 5374 5367 5360 5354 5348 5343 5339 5334 5330 5327 5323 5320 5318 5315 5313 5311 5310 5309 5307 5305 5303 5302 5301 5300 5298 5297 5296
5511 5499 5486 5473 5463 5451 5440 5430 5421 5413 5405 5397 5390 5383 5377 5371 5364 5357 5351 5345 5339 5333 5328 5324 5320 5316 5312 5309 5307 5305 5302 5300 5299 5297 5295 5292 5290 5289 5288 5286 5285 5283 5281
5492 5479 5468 5456 5445 5436 5428 5418 5409 5401 5391 5384 5378 5371 5365 5360 5354 5347 5340 5335 5329 5324 5319 5314 5310 5306 5303 5300 5297 5294 5292 5290 5288 5285 5283 5281 5278 5276 5274 5273 5271 5269 5267
5472 5461 5450 5440 5431 5422 5414 5408 5400 5390 5382 5374 5366 5360 5354 5349 5343 5337 5331 5325 5320 5315 5310 5305 5302 5298 5294 5291 5287 5285 5282 5280 5277 5274 5272 5269 5267 5265 5262 5260 5258 5256 5253
5453 5444 5434 5425 5417 5409 5401 5394 5388 5383 5374 5365 5357 5350 5344 5339 5333 5327 5322 5317 5311 5306 5301 5297 5293 5289 5285 5282 5278 5275 5272 5269 5266 5264 5261 5258 5256 5253 5251 5248 5245 5243 5240
5438 5429 5420 5412 5404 5396 5389 5382 5375 5369 5364 5358 5350 5342 5336 5330 5324 5318 5313 5308 5303 5298 5293 5289 5285 5281 5277 5273 5269 5266 5263 5260 5256 5254 5251 5248 5245 5242 5239 5236 5233 5231 5228
5425 5416 5408 5400 5393 5385 5378 5371 5365 5358 5352 5347 5341 5334 5328 5322 5316 5310 5304 5299 5295 5290 5286 5281 5277 5273 5269 5265 5261 5257 5254 5251 5247 5244 5241 5238 5235 5232 5229 5225 5222 5219 5216
5412 5403 5395 5388 5382 5375 5368 5361 5355 5349 5343 5337 5331 5326 5320 5314 5309 5303 5297 5292 5287 5283 5278 5274 5269 5265 5261 5257 5253 5249 5246 5242 5239 5236 5232 5229 5225 5222 5219 5215 5212 5208 5205
5399 5392 5385 5378 5371 5364 5358 5351 5345 5340 5334 5329 5323 5317 5311 5306 5301 5295 5290 5285 5280 5276 5271 5267 5262 5258 5254 5250 5246 5242 5238 5235 5231 5227 5224 5220 5217 5213 5210 5206 5202 5199 5195
5386 5380 5374 5368 5361 5355 5349 5343 5337 5331 5326 5321 5316 5310 5304 5298 5293 5288 5283 5278 5273 5269 5264 5260 5256 5251 5247 5243 5239 5235 5232 5228 5224 5220 5217 5213 5209 5205 5201 5198 5194 5190 5186
5375 5369 5364 5358 5352 5346 5340 5334 5329 5323 5318 5313 5308 5303 5298 5292 5287 5282 5277 5272 5267 5263 5258 5253 5249 5245 5241 5237 5233 5230 5226 5222 5218 5214 5210 5206 5203 5198 5194 5190 5186 5182 5178
5365 5360 5354 5349 5343 5338 5332 5327 5321 5316 5311 5307 5302 5297 5292 5287 5282 5276 5271 5266 5261 5257 5252 5248 5243 5239 5236 5232 5228 5225 5221 5217 5213 5209 5205 5201 5196 5192 5188 5183 5179 5174 5170
5356 5351 5345 5340 5335 5329 5324 5319 5314 5309 5305 5300 5296 5291 5286 5281 5276 5271 5266 5262 5257 5252 5247 5243 5239 5235 5231 5228 5224 5220 5216 5212 5208 5204 5200 5195 5191 5186 5181 5177 5172 5168 5163
5346 5342 5336 5331 5326 5321 5316 5312 5307 5303 5298 5294 5290 5285 5281 5276 5271 5267 5262 5258 5253 5248 5243 5239 5235 5231 5228 5224 5221 5217 5213 5208 5204 5200 5195 5190 5186 5181 5176 5171 5167 5162 5157
Wind_Speed
45 47 49 52 55 57 60 63 66 68 71 73 75 77 79 80 82 83 84 84 85 85 86 86 86 86 87 86 86 86 85 85 83 78 78 78 79 77 76 76 75 74 73
50 52 55 58 60 63 66 69 72 74 76 79 81 82 84 85 86 87 88 88 88 88 87 88 87 87 87 86 85 84 83 83 82 78 76 76 77 76 75 74 73 73 72
55 58 61 63 66 69 72 74 77 79 81 83 85 87 88 90 90 91 91 91 90 88 87 86 84 84 82 81 81 80 79 78 78 75 72 72 72 72 72 71 71 70 69
60 63 66 69 72 74 77 79 81 83 85 87 89 91 92 92 92 91 91 89 87 85 83 81 79 78 76 76 75 74 73 72 71 70 68 68 68 68 68 67 67 67 66
65 68 71 74 76 79 81 83 85 87 89 91 92 93 92 91 90 88 86 83 80 77 75 73 71 71 70 69 68 67 67 66 65 64 62 62 62 63 63 64 65 65 64
70 72 75 78 80 82 84 86 88 90 92 92 92 91 89 86 83 80 77 74 71 68 65 64 63 62 62 62 61 61 60 59 58 58 57 57 57 58 59 60 61 62 62
74 77 79 81 83 85 87 89 91 92 92 91 88 85 81 76 73 70 67 65 62 60 58 57 57 56 56 55 55 54 54 53 53 53 52 51 52 54 56 56 57 58 58
78 80 82 84 86 88 89 91 91 91 89 86 81 77 72 67 65 62 60 58 56 54 53 52 51 49 49 49 49 48 48 48 48 48 48 47 48 50 52 53 55 55 56
80 82 84 86 88 89 90 90 89 87 83 78 73 68 64 60 58 57 55 52 50 48 47 47 46 44 44 44 43 43 43 43 44 45 45 45 45 47 48 50 51 52 52
82 84 86 88 90 90 89 87 84 80 75 70 65 62 59 56 54 53 51 49 47 45 43 43 42 41 41 40 40 39 39 40 41 42 43 44 44 44 46 47 48 50 50
84 86 87 89 89 88 86 82 77 72 68 63 60 57 55 53 51 49 48 47 45 42 40 39 39 39 39 38 38 38 38 38 39 40 41 42 43 43 44 45 46 47 47
85 87 87 87 86 83 79 74 69 65 61 58 55 53 51 49 48 47 45 44 43 41 39 38 38 38 38 37 37 37 37 37 37 38 39 39 40 41 42 43 44 44 45
86 87 86 85 81 77 72 67 63 60 57 55 53 50 47 45 45 44 43 42 41 40 39 38 37 37 36 36 35 35 36 36 36 36 37 38 39 40 41 42 42 43 45
86 86 84 81 75 70 65 62 59 56 54 52 50 48 45 43 42 40 40 40 39 39 38 37 36 35 34 34 34 34 35 35 36 36 36 37 38 39 40 40 41 42 43
85 83 79 74 69 63 59 56 55 53 52 51 49 47 44 41 39 39 38 38 37 36 35 34 33 32 32 33 33 33 34 34 35 36 36 36 37 38 39 40 41 42 42
83 78 73 68 63 58 55 51 50 50 49 48 47 46 43 41 39 38 38 37 36 35 34 32 31 31 31 31 32 33 33 34 34 35 35 36 36 37 38 39 40 40 41
77 72 67 62 58 55 52 50 47 44 44 45 45 43 41 39 38 38 37 35 34 34 32 31 31 31 31 31 32 32 32 33 34 34 34 35 35 36 36 37 38 38 39
70 65 62 58 55 52 50 48 46 44 41 40 41 40 39 38 38 37 36 34 33 32 32 31 31 30 30 30 31 31 31 32 32 32 32 33 33 34 35 36 36 37 37
64 60 57 54 52 50 48 46 44 43 41 39 37 37 37 37 36 36 35 34 32 31 31 30 30 30 30 30 30 30 30 30 30 31 31 32 32 32 33 34 35 35 36
58 56 53 50 48 47 45 44 42 41 40 38 36 36 35 34 33 33 33 32 31 30 30 30 30 30 29 29 29 28 28 28 29 30 30 30 30 31 31 32 32 32 32
54 50 48 46 45 44 43 42 41 39 37 36 35 34 34 33 32 31 31 30 30 30 29 29 29 29 28 28 27 27 26 27 27 27 27 28 28 29 29 29 29 30 30
49 46 44 43 42 42 41 40 39 37 35 34 33 33 33 32 31 31 30 29 29 29 28 28 28 27 26 26 25 25 24 25 25 25 25 25 26 26 26 27 27 28 29
44 42 41 40 40 40 39 38 36 35 33 32 32 32 31 30 29 29 29 28 28 27 27 26 26 25 25 24 23 23 23 24 24 24 24 24 25 25 26 26 27 28 28
40 39 39 38 38 37 36 35 34 33 31 31 31 30 29 28 28 28 28 27 27 26 25 25 24 23 22 22 21 22 22 22 23 23 23 23 24 25 26 26 26 26 27
37 37 37 37 36 35 34 33 32 30 29 29 29 28 27 27 27 27 26 25 25 24 24 23 22 21 20 20 20 21 21 22 23 23 23 23 24 24 25 25 25 25 26
35 36 36 35 34 33 32 31 29 28 28 27 27 26 26 26 26 25 24 23 23 22 22 21 20 19 18 19 19 20 21 22 22 23 23 23 23 24 24 24 24 25 25
Wind_Direction
299 300 301 301 301 301 301 300 300 299 298 298 297 296 295 294 294 293 292 290 289 288 286 284 283 281 280 278 277 277 276 276 275 273 272 272 271 271 270 270 269 269 269
300 301 301 302 302 301 301 301 300 300 299 298 298 297 297 296 295 294 292 291 290 288 286 284 283 281 280 278 277 277 276 276 275 274 272 271 271 270 270 270 269 269 269
301 302 303 303 302 302 302 302 301 301 300 300 299 299 298 297 296 295 294 292 291 289 287 285 283 281 280 278 277 276 276 275 274 274 272 270 270 269 269 269 269 268 268
303 303 303 304 304 303 303 303 302 302 302 301 301 300 300 299 298 296 295 293 291 289 287 286 284 283 281 280 278 278 277 275 275 275 273 271 270 269 268 268 267 267 267
304 304 304 305 305 304 304 304 304 304 303 303 303 302 302 301 299 297 295 294 292 290 289 288 286 285 283 282 280 279 278 277 275 274 273 271 270 269 268 266 266 266 266
304 305 305 305 305 305 305 305 305 305 305 305 304 304 303 301 300 299 297 296 295 293 291 289 287 286 284 283 282 280 278 277 276 275 274 273 271 269 267 266 267 267 268
305 306 306 306 307 307 307 307 307 307 306 306 306 305 304 303 301 300 299 298 298 296 294 291 289 287 285 283 282 280 279 278 277 275 273 272 271 269 268 268 268 268 269
307 307 308 308 308 308 309 309 308 308 308 307 306 306 305 304 303 302 302 301 300 299 296 294 292 289 286 284 283 281 280 279 278 276 274 272 271 271 271 271 270 270 270
308 309 309 309 310 310 310 310 309 309 309 308 308 307 306 306 305 305 304 303 302 300 298 296 294 292 289 287 286 283 281 279 278 277 276 275 273 273 273 272 272 272 272
309 310 310 311 311 311 311 311 310 310 309 309 309 309 309 308 308 307 305 304 303 302 300 298 295 293 291 290 288 286 284 281 279 278 278 278 277 276 274 273 272 272 273
311 311 312 312 312 312 312 311 310 310 310 310 310 311 310 309 309 308 307 306 305 303 302 299 296 295 293 291 290 288 286 284 282 281 280 280 278 277 276 275 275 275 275
312 312 312 313 313 312 312 311 310 310 310 311 311 311 311 310 309 308 308 307 306 305 304 301 298 296 294 292 290 289 287 286 285 284 283 281 278 277 277 278 278 278 277
312 313 313 313 313 312 311 311 311 310 311 311 312 312 312 311 310 309 309 308 307 306 305 303 301 298 296 293 291 290 289 288 288 287 285 282 280 279 279 279 279 279 279
313 313 313 313 312 312 311 311 311 311 311 311 312 312 312 312 311 310 310 309 308 307 305 304 302 299 297 295 293 291 290 289 288 288 286 284 282 280 280 280 280 280 280
314 314 313 313 312 312 311 312 312 312 312 313 313 313 314 314 313 312 312 311 310 309 308 306 303 300 298 296 294 292 291 290 290 289 288 286 284 283 282 282 282 282 282
314 314 313 312 312 312 311 312 312 312 313 313 314 314 315 315 315 314 314 313 312 312 311 309 306 303 301 298 295 294 292 291 291 290 289 288 286 284 283 283 283 283 283
314 313 313 313 313 312 312 312 312 312 312 313 313 313 314 315 316 316 315 314 313 313 312 310 308 306 304 301 298 296 294 293 292 291 290 289 288 287 285 285 284 284 284
313 313 312 313 313 313 313 313 313 313 313 313 313 313 314 316 316 316 316 315 314 313 312 311 310 308 306 304 302 299 297 296 295 294 293 292 290 289 288 287 287 287 287
312 312 312 312 313 313 313 313 313 314 315 315 315 314 315 316 317 317 317 316 315 314 313 312 311 309 308 307 305 302 300 298 297 297 296 295 293 292 291 290 290 290 289
311 311 312 312 313 313 313 313 314 315 316 316 316 316 316 317 317 317 317 317 316 314 313 313 312 310 309 308 307 305 303 301 301 301 299 298 296 295 294 294 293 293 292
310 310 311 312 313 313 313 314 314 315 316 317 318 318 319 319 319 320 319 318 317 316 315 314 313 312 311 310 308 307 306 306 306 305 303 302 301 300 299 297 296 296 296
310 310 311 311 312 313 314 314 315 315 316 318 319 319 320 320 320 320 320 320 318 317 316 316 315 314 314 313 311 310 310 311 311 310 308 307 306 305 304 302 300 300 299
309 310 311 312 312 313 314 315 315 316 317 318 319 320 321 321 322 323 322 321 320 319 318 318 317 316 316 316 315 314 315 316 315 314 312 311 310 310 309 307 306 304 303
308 310 311 312 313 313 314 315 315 315 316 318 319 321 321 323 324 324 325 325 324 323 323 322 320 320 319 319 319 319 320 320 319 319 317 316 316 315 314 313 311 309 307
307 309 310 312 313 313 314 315 315 315 316 318 319 320 321 322 324 325 326 327 327 327 327 326 325 324 324 324 324 325 325 325 325 324 323 321 320 319 318 317 315 314 313
307 309 310 312 312 313 315 316 315 315 316 318 319 320 321 323 324 326 327 329 330 330 331 331 331 331 330 330 330 330 330 330 330 329 329 328 327 325 323 322 320 319 318